Location: Schommer Observatory
(40.5200°N, 74.4500°W)
Time: 19:53:45
(UTC-05:00)

Envisat - Pass Details

Date: 13 October 2017
Orbit: 764 x 766 km, 98.2° (Epoch: 14 December)

Event Time Altitude Azimuth Distance (km) Brightness Sun altitude
Exits shadow 20:57:05 50° 330° (NNW) 974 3.7 -30.3°
Drops below altitude 10° 21:00:51 10° 344° (NNW) 2,313 5.8 -31.0°
Sets 21:03:11 0° 346° (NNW) 3,243 6.6 -31.5°
